PDT,Max TemperatureF,Mean TemperatureF,Min TemperatureF,Max Dew PointF,MeanDew PointF,Min DewpointF,Max Humidity, Mean Humidity, Min Humidity, Max Sea Level PressureIn, Mean Sea Level PressureIn, Min Sea Level PressureIn, Max VisibilityMiles, Mean VisibilityMiles, Min VisibilityMiles, Max Wind SpeedMPH, Mean Wind SpeedMPH, Max Gust SpeedMPH,PrecipitationIn, CloudCover, Events, WindDirDegrees
2010-10-1,81,68,55,49,46,42,67,49,30,30.04,30.01,29.95,10,10,10,13,6,15,0.00,0,,55
2010-10-2,81,66,51,51,48,43,83,56,28,30.07,29.98,29.84,10,10,10,9,4,12,0.00,1,,68
2010-10-3,67,62,56,56,52,49,86,69,52,29.90,29.86,29.78,10,10,9,16,6,18,0.06,7,Rain,126
2010-10-4,60,55,50,54,46,42,96,75,53,30.09,29.97,29.88,10,10,10,13,7,15,0.06,7,Rain,174
2010-10-5,64,53,41,44,41,37,83,64,44,30.36,30.29,30.11,10,10,10,9,4,13,0.00,2,,115
2010-10-6,71,57,43,47,44,42,100,72,44,30.30,30.13,29.95,10,10,10,10,4,15,0.00,2,,32
2010-10-7,57,55,52,54,51,46,100,84,67,30.04,29.98,29.90,10,7,0,13,4,16,0.24,8,Rain,125
2010-10-8,57,53,49,52,48,45,100,81,62,30.22,30.14,30.04,10,8,2,14,8,16,0.02,7,Rain,176
2010-10-9,65,57,48,55,49,46,93,73,52,30.28,30.24,30.19,10,10,6,9,4,13,0.05,8,Rain,119
2010-10-10,65,55,45,59,55,42,100,87,73,30.21,30.11,30.06,10,9,2,22,11,28,0.07,8,Rain,205
2010-10-11,56,47,37,40,34,30,85,62,38,30.45,30.33,30.12,10,10,10,17,10,22,0.00,1,,202
2010-10-12,59,48,36,39,35,31,92,64,36,30.50,30.44,30.39,10,10,10,10,4,14,0.00,3,,82
2010-10-13,63,51,39,42,40,37,92,69,46,30.37,30.29,30.18,10,10,10,12,7,14,0.00,3,,51
2010-10-14,70,56,41,45,40,36,93,61,28,30.19,30.10,30.00,10,10,10,15,8,17,0.00,3,,91
2010-10-15,57,48,39,42,27,16,89,55,20,30.27,30.18,29.99,10,10,10,20,9,26,0.00,4,,231
2010-10-16,55,44,33,28,25,21,75,52,28,30.22,30.16,30.11,10,10,10,8,4,10,0.00,5,,31
2010-10-17,56,43,30,32,27,21,92,59,26,30.28,30.23,30.15,10,10,8,8,2,10,0.00,1,,55
2010-10-18,58,45,32,30,28,26,89,60,30,30.31,30.27,30.24,10,10,6,10,2,13,0.00,5,,193
2010-10-19,61,48,34,35,32,27,89,63,36,30.30,30.22,30.14,10,10,10,8,3,12,0.00,2,,69
2010-10-20,62,49,36,40,37,34,92,66,39,30.13,30.05,29.96,10,10,10,13,6,15,0.00,1,,47
2010-10-21,65,52,39,42,40,37,93,69,44,29.95,29.89,29.82,10,10,10,10,5,14,0.00,1,,52
2010-10-22,59,49,38,42,40,38,89,72,55,29.94,29.88,29.84,10,10,8,13,6,15,0.00,5,,186
2010-10-23,50,44,38,45,43,36,100,87,74,29.84,29.80,29.68,10,7,1,13,5,14,0.16,8,Rain,163
2010-10-24,50,45,40,45,42,36,100,87,74,30.08,29.44,29.33,10,8,2,29,16,38,0.34,8,Rain,189
2010-10-25,45,41,36,40,37,34,93,82,70,29.75,29.65,29.49,10,10,7,32,21,39,0.11,8,Rain,218
2010-10-26,47,41,35,36,34,32,92,76,60,30.09,29.89,29.75,10,10,10,20,13,24,T,7,,206
2010-10-27,47,43,39,37,36,34,92,79,65,30.27,30.20,30.11,10,10,10,14,8,16,0.00,7,,122
2010-10-28,44,41,38,41,37,34,96,85,73,30.17,30.10,30.01,10,9,4,14,7,16,0.05,8,Rain,50
2010-10-29,46,43,40,43,41,39,100,95,89,30.09,30.05,29.99,10,4,0,9,3,10,0.29,8,Fog-Rain,116
2010-10-30,45,42,38,43,40,37,100,92,83,30.03,29.92,29.85,10,4,0,14,7,18,0.03,8,Fog-Rain,66
2010-10-31,51,46,40,44,41,35,100,83,66,30.22,30.03,29.89,10,8,0,20,9,25,0.06,6,Rain,184